Simultaneous Nadir Overpasses (SNOs) Predictions

Prediction of SNOs between LANDSAT-8 and NPP Satellite Orbit:

Table of predicted SNOs for the next 14.0 days since TLE Epoch: 1/23/2015
Index Date (LANDSAT-8) Time (LANDSAT-8) Lat,Lon (LANDSAT-8) SZA (LANDSAT-8 ) Date (NPP) Time (NPP) Lat,Lon (NPP) SZA (NPP ) Distance(km) Time Diff (sec)
1 01/25/2015 02:01:26 70.81, 147.02 89.86 01/25/2015 02:00:18 70.79, 147.03 89.86 2.09 68
2 01/25/2015 02:50:56 -70.70, -45.51 90.26 01/25/2015 02:51:00 -70.72, -45.53 90.23 2.50 4
3 01/25/2015 03:40:28 70.32, 121.56 89.38 01/25/2015 03:41:39 70.33, 122.40 89.36 31.16 71
4 01/27/2015 18:17:53 70.79, -97.13 89.17 01/27/2015 18:17:07 70.78, -97.16 89.17 1.32 46
5 01/27/2015 19:07:23 -70.68, 70.34 90.95 01/27/2015 19:07:48 -70.65, 70.36 90.97 2.95 25
6 01/30/2015 10:34:20 70.74, 18.69 88.42 01/30/2015 10:33:55 70.72, 18.72 88.40 3.18 25
7 01/30/2015 11:23:50 -70.64,-173.84 91.70 01/30/2015 11:24:37 -70.64,-173.83 91.70 0.40 47
8 02/02/2015 02:01:17 -70.96, -32.74 92.12 02/02/2015 02:00:04 -71.04, -33.33 92.01 23.18 73
9 02/02/2015 02:50:47 70.69, 134.49 87.62 02/02/2015 02:50:44 70.71, 134.51 87.65 3.32 3
10 02/02/2015 03:40:17 -70.58, -58.04 92.50 02/02/2015 03:41:25 -70.58, -57.96 92.51 3.06 68
11 02/04/2015 18:17:45 -70.78, 82.87 93.07 02/04/2015 18:16:47 -70.77, 82.89 93.07 0.73 58
12 02/04/2015 19:07:12 70.66,-109.65 86.81 02/04/2015 19:07:31 70.66,-109.62 86.81 1.05 19
